Skip Page Navigation
NASA JPL Caltech
NASA Logo - Jet Propulsion Laboratory + View the NASA Portal
+ Center for Near-Earth Object Studies
JPL Home Earth Solar System Stars & Galaxies Technology
JPL Solar System Dynamics
BODIES ORBITS EPHEMERIDES TOOLS PHYSICAL DATA DISCOVERY FAQ SITE MAP
IMPORTANT: The SSD Announcement email list is now available. Major changes are coming in the near future, including possible hostname and/or URL changes. To be notified of such changes, subscribe to this email list.

Please visit this page for more details.


JPL Small-Body Database Browser
Search: [ help ]  
34036 (2000 OX27)
Classification: Main-belt Asteroid          SPK-ID: 2034036
Ephemeris | Orbit Diagram | Orbital Elements | Mission Design | Physical Parameters | Discovery Circumstances ]

[ show orbit diagram ]
Orbital Elements at Epoch 2458600.5 (2019-Apr-27.0) TDB
Reference: JPL 20 (heliocentric ecliptic J2000)
 Element Value Uncertainty (1-sigma)   Units 
e .2150788108230033 4.8772e-08  
a 2.313915950829948 9.0872e-09 au
q 1.816241659781064 1.1613e-07 au
i 23.22473373187767 5.5799e-06 deg
node 337.5769635138443 9.0219e-06 deg
peri 140.5284306668733 1.8151e-05 deg
M 347.0660341340862 1.2437e-05 deg
tp 2458646.690111050083
(2019-Jun-12.19011105)
4.4412e-05 TDB
period 1285.641244952763
3.52
7.5735e-06
2.074e-08
d
yr
n .2800159075584318 1.6495e-09 deg/d
Q 2.811590241878832 1.1042e-08 au
  Orbit Determination Parameters
   # obs. used (total)      1519  
   data-arc span      11898 days (32.57 yr)  
   first obs. used      1986-10-04  
   last obs. used      2019-05-02  
   planetary ephem.      DE431  
   SB-pert. ephem.      SB431-N16  
   condition code      0  
   norm. resid. RMS      .39124  
   source      ORB  
   producer      Otto Matic  
   solution date      2019-Jul-13 01:39:55  

Additional Information
 Earth MOID = .867991 au 
 Jupiter MOID = 2.3112 au 
 T_jup = 3.446 
[ show covariance matrix ]

Ephemeris | Orbit Diagram | Orbital Elements | Mission Design | Physical Parameters | Discovery Circumstances ]

Physical Parameter Table
Parameter Symbol Value Units Sigma Reference Notes
absolute magnitude H 13.2   n/a MPO421915  
diameter diameter 6.694 km 0.173 urn:nasa:pds:neowise_diameters_albedos::2.0[mainbelt] (http://adsabs.harvard.edu/abs/2011ApJ...741...68M)  
rotation period rot_per 14.143 h n/a LCDB (Rev. 2019-January); Warner et al., 2009 Published Reference List:
[Carbo, L.; Green, D.; Kragh, K.; Krotz, J.; et al. (2009) Minor Planet Bull. 36, 152-157.]
geometric albedo albedo 0.227   0.030 urn:nasa:pds:neowise_diameters_albedos::2.0[mainbelt] (http://adsabs.harvard.edu/abs/2011ApJ...741...68M)  

34036 (2000 OX27)          Discovered 2000-Jul-23 by LINEAR at Socorro
Reference: 20020128/Numbers.arcLast Updated: 2004-04-19

Alternate Designations
 2000 OX27 = 1988 EO = 1993 QX1 
Ephemeris | Orbit Diagram | Orbital Elements | Mission Design | Physical Parameters | Discovery Circumstances ]
ABOUT SSD CREDITS/AWARDS PRIVACY/COPYRIGHT GLOSSARY LINKS
FirstGov 2019-Oct-17 14:17 UT
(server date/time)  
NASA Home Page
Site Manager:   Ryan S. Park
Webmaster  Alan B. Chamberlin